Regional Weather Roundup
Issued by NWS

Home | Current Version | Previous Version | Graphics & Text | Print | Product List | Glossary On
Versions: 1 2 3 4 5 6 7 8 9 10 11 12 13 14 15 16 17 18 19 20 21 22 23 24 25 26 27 28 29 30 31 32 33 34 35 36 37 38 39 40 41 42 43 44 45 46 47 48 49 50
000
ASUS45 KABQ 061810
RWRNM
NEW MEXICO REGIONAL WEATHER ROUNDUP
NATIONAL WEATHER SERVICE ALBUQUERQUE NM
1200 PM MDT FRI MAY 06 2016

NOTE: "FAIR" MEANS FEW OR NO CLOUDS BELOW 12,000 FEET AGL WITH NO
       SIGNIFICANT WEATHER OR OBSTRUCTIONS TO VISION.

      THIS PRODUCT IS RELEASED AS TWO VERSIONS.  ONE VERSION NEAR
      THE TOP OF THE HOUR CONTAINING PRELIMINARY DATA FROM ALBUQUERQUE
      AND OTHER STATIONS.  A FINAL VERSION WITH ADDITIONAL DATA IS
      ISSUED ABOUT 10 MINUTES AFTER THE HOUR.

NMZ501-503-504-510>518-061900-
NORTHWEST PLATEAU/NORTHCENTRAL MOUNTAINS

CITY           SKY/WX    TMP DP  RH WIND       PRES   REMARKS
FARMINGTON     FAIR      75  21  13 S18G24    29.89F
6HR MIN TEMP:  56; 6HR MAX TEMP:  75;

LOS ALAMOS     FAIR      69  23  17 S17G30    30.09F
SANTA FE       FAIR      76  27  16 S26G33    30.04F
6HR MIN TEMP:  59; 6HR MAX TEMP:  76;

TAOS           FAIR      70  30  23 S5        30.08S
ANGEL FIRE     FAIR      63  28  27 SE16G36   30.19S

$$
NMZ402-403-502-505>509-061900-
WESTCENTRAL MOUNTAINS/SOUTHWEST MOUNTAINS

CITY           SKY/WX    TMP DP  RH WIND       PRES   REMARKS
GALLUP         FAIR      68  18  14 S20G44    29.96F
6HR MIN TEMP:  42; 6HR MAX TEMP:  71;

GRANTS         FAIR      73  17  12 SE24G32   29.98F
SILVER CITY      N/A     75  23  14 S23       30.03S

$$
NMZ407-409-411-412-061900-
SOUTHERN DESERTS

CITY           SKY/WX    TMP DP  RH WIND       PRES   REMARKS
LORDSBURG      FAIR      79  23  12 S18G29    29.95S
DEMING         FAIR      81  21  11 SW12G28   29.96F
6HR MIN TEMP:  44; 6HR MAX TEMP:  82;

LAS CRUCES     FAIR      84  17   8 S16G22    29.97F
HOLLOMAN AFB   FAIR      86  20   8 S18G29    29.92F
ALAMOGORDO     FAIR      86  21   9 S21G30    29.95F
T OR C         FAIR      80  15   8 SW17G29   29.95F
6HR MIN TEMP:  56; 6HR MAX TEMP:  80;


$$
NMZ519>523-061900-
CENTRAL VALLEYS/CENTRAL HIGHLANDS

CITY           SKY/WX    TMP DP  RH WIND       PRES   REMARKS
ALBUQUERQUE    FAIR      80  18  10 S33G40    29.96F
6HR MIN TEMP:  60; 6HR MAX TEMP:  80;

DOUBLE EAGLE   SUNNY     77  23  13 SE23G35   30.00F
MORIARTY ARPT  FAIR      76  19  11 S21G29    30.06F
6HR MIN TEMP:  46; 6HR MAX TEMP:  76;

CLINES CORNERS FAIR      72  26  18 S15G29    30.10F
6HR MIN TEMP:  50; 6HR MAX TEMP:  73;

BELEN          FAIR      79  12   8 S26G37    29.97S
6HR MIN TEMP:  58; 6HR MAX TEMP:  79;

SOCORRO        FAIR      81  14   8 S25G33    29.94F
6HR MIN TEMP:  56; 6HR MAX TEMP:  81;


$$
NMZ524>526-539-540-061900-
SOUTHCENTRAL MOUNTAINS

CITY           SKY/WX    TMP DP  RH WIND       PRES   REMARKS
RUIDOSO          N/A     75  27  16 S24G35    30.10F

$$
NMZ527>531-061900-
NORTHEAST HIGHLANDS/NORTHEAST PLAINS

CITY           SKY/WX    TMP DP  RH WIND       PRES   REMARKS
LAS VEGAS      FAIR      69  31  24 S20G33    30.13F
6HR MIN TEMP:  47; 6HR MAX TEMP:  69; 6HR PCP: TRACE;

RATON          FAIR      69  27  20 S16G29    30.10F
6HR MIN TEMP:  43; 6HR MAX TEMP:  71;

CLAYTON        FAIR      77  37  23 S24G30    30.08F
6HR MIN TEMP:  53; 6HR MAX TEMP:  77;


$$
NMZ532>537-061900-
EASTCENTRAL PLAINS

CITY           SKY/WX    TMP DP  RH WIND       PRES   REMARKS
TUCUMCARI      FAIR      83  31  15 S20G30    30.01F
6HR MIN TEMP:  52; 6HR MAX TEMP:  84;

CANNON AFB     FAIR      82  33  17 S29G35    30.04F
6HR MIN TEMP:  55; 6HR MAX TEMP:  82;

CLOVIS AIRPORT FAIR      81  36  19 S28G35    30.06F

$$
NMZ028-029-538-061900-
SOUTHEAST PLAINS

CITY           SKY/WX    TMP DP  RH WIND       PRES   REMARKS
ROSWELL        FAIR      84  35  17 S18G29    29.97F
6HR MIN TEMP:  50; 6HR MAX TEMP:  84;

ARTESIA        FAIR      84  37  18 SE22G29   29.96F
CARLSBAD       FAIR      85  37  18 S20G30    29.95F
6HR MIN TEMP:  60; 6HR MAX TEMP:  85;

HOBBS          SUNNY     82  36  18 SE29G38   30.02F


$$




USA.gov is the U.S. government's official web portal to all federal, state and local government web resources and services.